{"data":{"norad_id":69427,"intl_designator":"2026-126H","name":"STARLINK-37823","alt_names":[],"object_type":"PAYLOAD","status":"ACTIVE","operator":null,"country":"US","launch_date":"2026-06-07","launch_site_code":"AFWTR","launch_vehicle":null,"mission":null,"orbit_class":"UNKNOWN","rcs_meters":null,"size_class":null,"mass_kg":null,"dimensions":null,"purposes":["comms"],"wikipedia_slug":null,"has_3d_model":false,"image_url":null,"decayed_at":null,"tle_current":{"epoch":"2026-09-20T00:48:15.736608Z","epoch_age_seconds":65798,"freshness":"FRESH","line1":"1 69427U 26126H   26263.03351547  .00008366  00000+0  26114-3 0  9991","line2":"2 69427  97.2834 124.2845 0001431  94.1971 265.9436 15.33451433 17453","mean_motion":15.33451433,"eccentricity":0.0001431,"inclination_deg":97.2834,"raan_deg":124.2845,"arg_perigee_deg":94.1971,"mean_anomaly_deg":265.9436,"bstar":0.00026114,"rev_number":1745,"period_min":93.90581070982,"perigee_km":464.54470656901,"apogee_km":466.50336235708,"semimajor_km":6843.661034463,"source":"CELESTRAK","updated_at":"2026-09-20T09:00:44.195587Z"}}}